[[{"header":{"parameterUnit":"m.s-1","parameterCategory":1,"la1":30.2991,"la2":30.254,"lo1":-89.0895,"lo2":-89.0444,"dy":0.0017,"dx":0.0017,"nx":28,"ny":28,"refTime":"2025-11-22T03:00:00:Z","depth":0,"parameterNumber":2,"parameterNumberName":"U-component_of_WINDS"},"data":[0,0,0,0,0,0,0,0,0,0,0,0,0,0,0,0,0,0,0,0,0,0,0,0,0,0,0,0,0,0,0,0,0,0,0,0,0,0,0,0,0,0,0,0,0,0,0,0,0,0,0,0,0,0,0,0,0,0,1.1969,1.197,0,1.2057,1.2058,1.2059,1.2067,1.2066,1.2065,1.2064,1.2157,1.216,1.2163,0,0,0,0,0,0,0,0,0,0,0,0,0,1.1812,1.1815,1.1969,1.197,1.1971,1.2056,1.2058,1.2059,1.2067,1.2066,1.2065,1.2064,1.2156,1.216,1.2164,0,0,0,0,0,0,0,0,0,0,0,0,0,1.1888,1.1816,1.1968,1.1985,1.1988,1.2056,1.2058,1.2059,1.2067,1.2066,1.2064,1.2063,1.2154,1.2159,1.2164,1.2223,0,0,1.2179,1.2182,0,0,0,0,0,0,0,0,1.1884,1.1894,1.1982,1.1984,1.1987,1.2049,1.2036,1.2114,1.2067,1.2037,1.2064,1.2062,1.2122,1.213,1.2149,1.2227,1.2231,1.218,1.2183,1.2185,1.2186,0,0,0,0,0,0,0,1.1879,1.189,1.2004,1.1983,1.1986,1.199,1.1999,1.2051,1.2087,1.204,1.204,1.205,1.2123,1.2145,1.2152,1.2233,1.218,1.2184,1.2187,1.2189,1.2366,1.2367,0,0,0,0,0,0,1.187,1.1886,1.2001,1.2006,1.1931,1.1994,1.2004,1.2031,1.2086,1.2093,1.2052,1.2051,1.2137,1.2146,1.2155,1.2228,1.2185,1.219,1.2193,1.2364,1.2366,1.2368,0,0,0,0,0,0,1.1866,1.188,1.1997,1.1946,1.1961,1.1998,1.2028,1.2033,1.2054,1.2095,1.2102,1.2066,1.2136,1.2148,1.2206,1.2232,1.2192,1.2197,1.2362,1.2365,1.2367,1.2375,0,0,0,0,0,0,1.1862,1.1879,1.19,1.1947,1.1964,1.2046,1.2029,1.2036,1.2062,1.2062,1.2111,1.2117,1.2136,1.2199,1.2211,1.2238,1.22,1.236,1.2363,1.2366,1.2373,1.2378,1.2382,0,0,0,0,0,1.1856,1.1899,1.1901,1.1915,1.1992,1.2047,1.2057,1.2077,1.2064,1.2087,1.2114,1.2116,1.2227,1.2205,1.2219,1.2247,1.2358,1.2362,1.2366,1.2371,1.2377,1.2382,0,0,0,0,0,0,1.1855,1.1905,1.1908,1.1967,1.2003,1.2048,1.2077,1.2082,1.2122,1.212,1.2144,1.2155,1.2213,1.2236,1.221,1.2308,1.2292,1.2298,1.2291,1.2297,1.2301,1.2294,1.2205,0,0,0,0,0,1.1862,1.1901,1.1944,1.1992,1.201,1.2041,1.2065,1.2078,1.2116,1.2131,1.2162,1.2199,1.2243,1.2271,1.2314,1.2377,1.2388,1.2404,1.2408,1.2412,1.2417,1.2454,1.2461,1.238,1.238,1.238,0,0,1.1876,1.1908,1.1932,1.1993,1.2022,1.2064,1.2053,1.2097,1.2129,1.2138,1.2195,1.2219,1.2263,1.2324,1.2353,1.2345,1.2442,1.2416,1.2419,1.2423,1.2458,1.2466,1.2473,1.2383,1.2382,1.2382,0,0,1.1923,1.1951,1.1995,1.2024,1.2068,1.2089,1.2099,1.2145,1.2161,1.2218,1.2226,1.2265,1.2339,1.2371,1.2396,1.2458,1.2462,1.2471,1.2495,1.253,1.2537,1.2542,1.2565,1.2573,1.2477,1.2477,1.2477,0,1.1935,1.1997,1.2017,1.2061,1.2089,1.2098,1.2144,1.2172,1.2228,1.2247,1.2238,1.2333,1.2363,1.2432,1.2447,1.2468,1.2482,1.2465,1.2534,1.254,1.2546,1.2568,1.2576,1.2478,1.2478,1.2478,1.2477,0,1.201,1.2054,1.2084,1.2137,1.2168,1.2213,1.2241,1.227,1.228,1.2303,1.2362,1.2399,1.2449,1.2467,1.2477,1.2539,1.2533,1.2529,1.2512,1.2554,1.2575,1.2583,1.2479,1.2479,1.2478,1.2478,0,0,1.2057,1.2122,1.2133,1.2158,1.2208,1.2243,1.2289,1.2338,1.2363,1.2402,1.2442,1.2506,1.2503,1.2532,1.2547,1.2578,1.2625,1.257,1.2572,1.2579,1.2696,1.2699,1.2708,1.2629,1.263,1.2632,1.2693,0,1.211,1.2191,1.2212,1.2282,1.2323,1.2334,1.2375,1.2411,1.2433,1.2473,1.2498,1.2543,1.2535,1.2553,1.2585,1.2613,1.2649,1.2609,1.2667,1.2669,1.2655,1.2719,1.2721,1.2777,1.2701,1.2702,1.2703,0,1.2182,1.2222,1.2296,1.2342,1.2361,1.2396,1.2444,1.2481,1.2523,1.2538,1.2571,1.2583,1.2634,1.2615,1.2686,1.2658,1.2684,1.2701,1.2704,1.271,1.2688,1.2727,1.2795,1.2803,1.2717,1.2715,1.2715,0,1.2209,1.2282,1.2336,1.2357,1.2412,1.2438,1.2462,1.2503,1.2532,1.2574,1.2593,1.2641,1.2667,1.2704,1.273,1.2714,1.2799,1.2782,1.2813,1.2812,1.2829,1.2828,1.2903,1.2846,1.2846,1.2846,1.2846,0,1.2266,1.2311,1.2349,1.2382,1.2434,1.2458,1.2508,1.2533,1.257,1.2609,1.2623,1.2659,1.2691,1.2732,1.2753,1.2809,1.2821,1.2834,1.2839,1.2833,1.2831,1.2849,1.2846,1.2848,1.2848,1.2847,1.2847,0,1.2304,1.2332,1.2391,1.2439,1.2453,1.2488,1.253,1.2564,1.2587,1.2637,1.265,1.2688,1.2738,1.2767,1.283,1.2844,1.2906,1.291,1.2892,1.2894,1.2923,1.292,1.3012,1.3026,1.296,1.2961,1.2961,0,1.2338,1.2373,1.2425,1.2452,1.2477,1.252,1.2549,1.2576,1.2606,1.2658,1.2685,1.2736,1.2778,1.2858,1.2891,1.294,1.2945,1.2974,1.2952,1.2945,1.2946,1.2943,1.2947,1.2977,1.2978,1.2978,1.2979,0,1.2396,1.2408,1.2449,1.2496,1.2531,1.257,1.2608,1.263,1.2662,1.2696,1.2747,1.278,1.2845,1.2895,1.2947,1.2974,1.2983,1.2986,1.2995,1.2989,1.2977,1.2984,1.2902,1.2983,1.2983,1.2982,1.2982,1.2982,1.2433,1.2465,1.2507,1.2553,1.2585,1.2621,1.2655,1.2683,1.2726,1.278,1.2793,1.2847,1.2891,1.2962,1.299,1.3034,1.3029,1.3043,1.3046,1.3049,1.305,1.2971,1.3043,1.3043,1.3043,1.3043,1.3043,0,1.2491,1.2519,1.2561,1.2614,1.2652,1.2656,1.2699,1.273,1.2777,1.2817,1.2858,1.2917,1.2967,1.3005,1.3057,1.3085,1.309,1.3097,1.3095,1.3101,1.3051,1.3038,1.3092,1.3092,1.3092,1.3092,1.3092,1.3092,1.2525,1.258,1.2598,1.2669,1.2697,1.2749,1.2774,1.2808,1.2839,1.2905,1.2946,1.2971,1.3011,1.3065,1.3112,1.3122,1.314,1.3147,1.3158,1.311,1.3105,1.31,1.3087,1.3151,1.3151,1.3204,1.3205,1.3205]},{"header":{"parameterUnit":"m.s-1","parameterCategory":1,"la1":30.2991,"la2":30.254,"lo1":-89.0895,"lo2":-89.0444,"dy":0.0017,"dx":0.0017,"nx":28,"ny":28,"refTime":"2025-11-22T03:00:00:Z","depth":0,"parameterNumber":3,"parameterNumberName":"V-component_of_WINDS"},"data":[0,0,0,0,0,0,0,0,0,0,0,0,0,0,0,0,0,0,0,0,0,0,0,0,0,0,0,0,0,0,0,0,0,0,0,0,0,0,0,0,0,0,0,0,0,0,0,0,0,0,0,0,0,0,0,0,0,0,-0.8588,-0.8588,0,-0.8588,-0.8588,-0.8588,-0.8629,-0.863,-0.8632,-0.8633,-0.863,-0.8629,-0.8628,0,0,0,0,0,0,0,0,0,0,0,0,0,-0.8626,-0.8625,-0.8588,-0.8588,-0.8588,-0.8588,-0.8588,-0.8588,-0.8629,-0.8631,-0.8632,-0.8633,-0.8631,-0.8629,-0.8628,0,0,0,0,0,0,0,0,0,0,0,0,0,-0.8616,-0.8625,-0.8588,-0.8609,-0.8611,-0.8588,-0.8588,-0.8588,-0.8629,-0.8631,-0.8632,-0.8634,-0.8631,-0.8629,-0.8628,-0.8584,0,0,-0.8623,-0.8622,0,0,0,0,0,0,0,0,-0.8616,-0.8614,-0.8606,-0.8607,-0.8609,-0.861,-0.86,-0.8587,-0.8628,-0.8622,-0.8633,-0.8635,-0.8622,-0.8621,-0.8618,-0.8584,-0.8584,-0.8623,-0.8622,-0.8621,-0.862,0,0,0,0,0,0,0,-0.8617,-0.8615,-0.8588,-0.8606,-0.8608,-0.8619,-0.8619,-0.8598,-0.8613,-0.8623,-0.8626,-0.8625,-0.8623,-0.8619,-0.8618,-0.8584,-0.8623,-0.8621,-0.862,-0.862,-0.8521,-0.8519,0,0,0,0,0,0,-0.8615,-0.8615,-0.8588,-0.8588,-0.8617,-0.8616,-0.8617,-0.8608,-0.8613,-0.8615,-0.8624,-0.8627,-0.8621,-0.862,-0.8618,-0.8571,-0.8621,-0.8619,-0.8618,-0.8522,-0.852,-0.8519,0,0,0,0,0,0,-0.8615,-0.8612,-0.8588,-0.8602,-0.86,-0.8614,-0.8604,-0.8607,-0.8603,-0.8614,-0.8617,-0.8616,-0.8622,-0.862,-0.8594,-0.8571,-0.8619,-0.8617,-0.8524,-0.8522,-0.8519,-0.8474,0,0,0,0,0,0,-0.8616,-0.8612,-0.8595,-0.8602,-0.8599,-0.8563,-0.8603,-0.8606,-0.86,-0.8605,-0.8608,-0.861,-0.8623,-0.8596,-0.8592,-0.857,-0.8616,-0.8526,-0.8523,-0.852,-0.8478,-0.8471,-0.8465,0,0,0,0,0,-0.8618,-0.8581,-0.8594,-0.859,-0.8578,-0.8562,-0.856,-0.8577,-0.8598,-0.8582,-0.859,-0.861,-0.8574,-0.8593,-0.8589,-0.8566,-0.8528,-0.8524,-0.852,-0.8481,-0.8472,-0.8465,0,0,0,0,0,0,-0.8569,-0.8582,-0.8597,-0.8561,-0.856,-0.8569,-0.8549,-0.8567,-0.8559,-0.8563,-0.8584,-0.8585,-0.8556,-0.8558,-0.8579,-0.8527,-0.8555,-0.855,-0.8526,-0.8518,-0.8511,-0.8512,-0.8615,0,0,0,0,0,-0.8555,-0.854,-0.8552,-0.8519,-0.8519,-0.8534,-0.8527,-0.8541,-0.854,-0.854,-0.8545,-0.8544,-0.8534,-0.8526,-0.8516,-0.8479,-0.8482,-0.8461,-0.8454,-0.8449,-0.8445,-0.843,-0.8422,-0.8506,-0.8506,-0.8507,0,0,-0.8524,-0.8529,-0.8518,-0.851,-0.8511,-0.8497,-0.8533,-0.8515,-0.8505,-0.8537,-0.8514,-0.8518,-0.8518,-0.8487,-0.8474,-0.8488,-0.8422,-0.8444,-0.844,-0.8439,-0.8425,-0.8417,-0.841,-0.8504,-0.8504,-0.8505,0,0,-0.8461,-0.8463,-0.8438,-0.8439,-0.8441,-0.8452,-0.8446,-0.8453,-0.8458,-0.8435,-0.846,-0.8449,-0.8428,-0.8429,-0.8426,-0.8369,-0.8388,-0.8365,-0.833,-0.8315,-0.8308,-0.8303,-0.8285,-0.8278,-0.8361,-0.8361,-0.8361,0,-0.8423,-0.8402,-0.8422,-0.8405,-0.8402,-0.8432,-0.8408,-0.8408,-0.8406,-0.8404,-0.842,-0.8399,-0.8401,-0.8373,-0.8359,-0.8355,-0.8351,-0.8365,-0.8308,-0.8302,-0.8297,-0.8281,-0.8274,-0.8358,-0.8359,-0.8359,-0.8359,0,-0.8357,-0.8342,-0.8322,-0.8322,-0.8317,-0.8295,-0.8314,-0.8306,-0.8321,-0.8331,-0.8309,-0.8313,-0.8307,-0.8301,-0.8314,-0.8276,-0.8285,-0.8304,-0.8333,-0.8286,-0.8271,-0.8265,-0.8354,-0.8355,-0.8356,-0.8357,0,0,-0.8261,-0.8276,-0.8269,-0.8271,-0.8278,-0.8267,-0.8249,-0.8244,-0.8239,-0.8237,-0.8224,-0.8208,-0.8228,-0.8225,-0.8239,-0.8225,-0.8184,-0.8247,-0.8247,-0.8237,-0.8146,-0.8133,-0.8125,-0.8197,-0.8196,-0.8195,-0.8147,0,-0.8203,-0.8173,-0.8193,-0.816,-0.815,-0.818,-0.8165,-0.8168,-0.8177,-0.817,-0.818,-0.817,-0.8194,-0.8194,-0.8181,-0.8192,-0.8166,-0.8195,-0.8186,-0.8186,-0.8187,-0.8117,-0.8102,-0.8057,-0.8141,-0.814,-0.8139,0,-0.813,-0.8129,-0.8096,-0.8109,-0.8105,-0.8091,-0.8091,-0.8083,-0.8088,-0.8096,-0.8095,-0.8114,-0.8099,-0.8127,-0.8108,-0.8127,-0.8125,-0.813,-0.8128,-0.8129,-0.8161,-0.8118,-0.8043,-0.8037,-0.813,-0.8131,-0.8131,0,-0.8069,-0.8058,-0.8038,-0.8039,-0.8052,-0.8043,-0.8048,-0.8055,-0.8052,-0.8052,-0.8051,-0.8048,-0.8047,-0.8045,-0.8063,-0.8081,-0.8043,-0.8071,-0.8051,-0.805,-0.8041,-0.8042,-0.7967,-0.8037,-0.8037,-0.8037,-0.8037,0,-0.8002,-0.7982,-0.8011,-0.7999,-0.7978,-0.8001,-0.798,-0.7988,-0.7995,-0.7986,-0.8011,-0.8002,-0.8026,-0.802,-0.8035,-0.8019,-0.8017,-0.8024,-0.8029,-0.8023,-0.8023,-0.8023,-0.8027,-0.8035,-0.8036,-0.8036,-0.8036,0,-0.7929,-0.7948,-0.7929,-0.7945,-0.7949,-0.7933,-0.7947,-0.7937,-0.7949,-0.7938,-0.7937,-0.7956,-0.7951,-0.7969,-0.7966,-0.7976,-0.7953,-0.7961,-0.7952,-0.7955,-0.7934,-0.7937,-0.7858,-0.785,-0.7923,-0.7922,-0.7922,0,-0.7887,-0.7872,-0.7888,-0.7885,-0.7889,-0.7883,-0.7881,-0.7905,-0.7902,-0.791,-0.79,-0.7897,-0.7896,-0.7887,-0.7901,-0.79,-0.791,-0.7883,-0.791,-0.7906,-0.7913,-0.7915,-0.7915,-0.7877,-0.7876,-0.7875,-0.7875,0,-0.781,-0.7822,-0.7819,-0.7821,-0.7819,-0.7821,-0.7824,-0.782,-0.7846,-0.7842,-0.7838,-0.7838,-0.7837,-0.7835,-0.7838,-0.7844,-0.7864,-0.7866,-0.7862,-0.7857,-0.7853,-0.7858,-0.7939,-0.7868,-0.7869,-0.7869,-0.787,-0.787,-0.7753,-0.7743,-0.7754,-0.7752,-0.7758,-0.7762,-0.7755,-0.7768,-0.7765,-0.7767,-0.7781,-0.7776,-0.7785,-0.7791,-0.7796,-0.7792,-0.7805,-0.7798,-0.7797,-0.7795,-0.7793,-0.7853,-0.7792,-0.7793,-0.7793,-0.7793,-0.7793,0,-0.7681,-0.769,-0.7688,-0.7694,-0.7693,-0.7713,-0.7719,-0.7717,-0.7712,-0.772,-0.772,-0.7717,-0.7716,-0.7732,-0.7733,-0.7728,-0.7738,-0.7728,-0.7729,-0.7731,-0.7779,-0.7785,-0.772,-0.772,-0.772,-0.772,-0.772,-0.772,-0.7643,-0.7629,-0.7642,-0.7632,-0.7641,-0.7637,-0.764,-0.7644,-0.7651,-0.7648,-0.7648,-0.7658,-0.767,-0.7673,-0.7674,-0.7679,-0.768,-0.7667,-0.7675,-0.772,-0.7727,-0.7734,-0.7739,-0.7666,-0.7666,-0.7628,-0.7627,-0.7627]}]]